BER66RL EDDB-EETN

Flight info

Callsign BER66RL
Flight time 1h 26m
Altitude 37000
Route GERGA3Q/06R GERGA M725 RENKI L132 DEMUR N746 GORPI DCT ANFEV DCT DIPEB DCT ETHUV DCT ADBIB DCT SULUN
Aircraft A320/M-SDE3FGHIRWY/LB1

Departure

Time 2026-05-05 13:53
Airport Berlin Brandenburg Airport (EDDB)

Arrival

Time 2026-05-05 15:20
Airport Lennart Meri Tallinn Airport (EETN)
Time Latitude Longitude Altitude Speed Heading
2026-05-05 13:26 52.36110 13.51237 155 ft 0 kts 339°
2026-05-05 13:43 52.36105 13.51240 155 ft 4 kts 339°
2026-05-05 13:44 52.36080 13.51256 155 ft 4 kts 339°
2026-05-05 13:44 52.36059 13.51268 155 ft 4 kts 334°
2026-05-05 13:44 52.36040 13.51293 155 ft 4 kts 294°
2026-05-05 13:44 52.36037 13.51327 155 ft 1 kts 249°
2026-05-05 13:45 52.36037 13.51328 155 ft 0 kts 249°
2026-05-05 13:47 52.36031 13.51302 154 ft 7 kts 249°
2026-05-05 13:47 52.36005 13.51192 154 ft 11 kts 249°
2026-05-05 13:47 52.35979 13.51083 154 ft 12 kts 248°
2026-05-05 13:47 52.35940 13.50921 154 ft 17 kts 249°
2026-05-05 13:48 52.35897 13.50738 154 ft 18 kts 249°
2026-05-05 13:48 52.35830 13.50629 154 ft 13 kts 172°
2026-05-05 13:48 52.35752 13.50680 154 ft 11 kts 160°
2026-05-05 13:48 52.35687 13.50658 154 ft 11 kts 233°
2026-05-05 13:49 52.35656 13.50533 154 ft 14 kts 249°
2026-05-05 13:49 52.35617 13.50371 156 ft 17 kts 249°
2026-05-05 13:49 52.35574 13.50190 154 ft 18 kts 249°
2026-05-05 13:49 52.35528 13.49997 154 ft 19 kts 249°
2026-05-05 13:50 52.35479 13.49789 154 ft 20 kts 248°
2026-05-05 13:50 52.35426 13.49567 154 ft 22 kts 249°
2026-05-05 13:50 52.35370 13.49330 154 ft 23 kts 249°
2026-05-05 13:50 52.35311 13.49079 154 ft 24 kts 248°
2026-05-05 13:51 52.35250 13.48828 154 ft 24 kts 249°
2026-05-05 13:51 52.35193 13.48581 154 ft 16 kts 250°
2026-05-05 13:51 52.35126 13.48543 154 ft 11 kts 148°
2026-05-05 13:51 52.35097 13.48673 154 ft 14 kts 97°
2026-05-05 13:52 52.35082 13.48831 154 ft 14 kts 99°
2026-05-05 13:52 52.35055 13.48967 154 ft 9 kts 115°
2026-05-05 13:52 52.35069 13.49064 154 ft 14 kts 68°
2026-05-05 13:52 52.35182 13.49532 154 ft 81 kts 68°
2026-05-05 13:53 52.35464 13.50720 155 ft 141 kts 69°
2026-05-05 13:53 52.35866 13.52401 439 ft 162 kts 68°
2026-05-05 13:53 52.35928 13.54207 1134 ft 166 kts 114°
2026-05-05 13:53 52.35149 13.55598 1875 ft 169 kts 141°
2026-05-05 13:54 52.34162 13.56795 2333 ft 186 kts 142°
2026-05-05 13:54 52.33088 13.58128 2751 ft 201 kts 142°
2026-05-05 13:54 52.31968 13.59551 3187 ft 213 kts 141°
2026-05-05 13:54 52.31070 13.61460 3811 ft 217 kts 108°
2026-05-05 13:55 52.31007 13.63987 4214 ft 235 kts 73°
2026-05-05 13:55 52.31516 13.66577 4868 ft 243 kts 71°
2026-05-05 13:55 52.32052 13.69219 5618 ft 247 kts 71°
2026-05-05 13:55 52.32595 13.71906 6367 ft 251 kts 72°
2026-05-05 13:56 52.32908 13.74736 7034 ft 259 kts 88°
2026-05-05 13:56 52.32838 13.77808 7366 ft 282 kts 94°
2026-05-05 13:56 52.32764 13.81072 8003 ft 292 kts 86°
2026-05-05 13:56 52.33303 13.84285 8715 ft 298 kts 61°
2026-05-05 13:57 52.34598 13.86861 9466 ft 300 kts 36°
2026-05-05 13:57 52.36448 13.88426 10150 ft 304 kts 18°
2026-05-05 13:57 52.38511 13.89667 10385 ft 328 kts 18°
2026-05-05 13:57 52.40712 13.90972 10776 ft 343 kts 18°
2026-05-05 13:58 52.42973 13.92318 11418 ft 349 kts 18°
2026-05-05 13:58 52.45267 13.93692 12128 ft 353 kts 18°
2026-05-05 13:58 52.47587 13.95091 12818 ft 357 kts 18°
2026-05-05 13:58 52.49935 13.96515 13504 ft 362 kts 18°
2026-05-05 13:59 52.54716 13.99428 14728 ft 371 kts 18°
2026-05-05 13:59 52.57148 14.00908 15336 ft 374 kts 16°
2026-05-05 14:00 52.62219 14.02274 16525 ft 373 kts 354°
2026-05-05 14:00 52.63965 14.02032 16935 ft 373 kts 348°
2026-05-05 14:00 52.67389 14.01276 17743 ft 377 kts 348°
2026-05-05 14:00 52.69999 14.00716 18318 ft 380 kts 348°
2026-05-05 14:01 52.72636 14.00161 18838 ft 384 kts 348°
2026-05-05 14:01 52.75295 13.99602 19361 ft 387 kts 348°
2026-05-05 14:01 52.77976 13.99037 19878 ft 390 kts 348°
2026-05-05 14:01 52.80679 13.98466 20389 ft 393 kts 348°
2026-05-05 14:02 52.83400 13.97888 20898 ft 396 kts 348°
2026-05-05 14:02 52.86011 13.97344 21384 ft 400 kts 350°
2026-05-05 14:02 52.88785 13.97316 21868 ft 410 kts
2026-05-05 14:02 52.91528 13.98164 22365 ft 418 kts 13°
2026-05-05 14:03 52.94256 13.99950 22868 ft 426 kts 24°
2026-05-05 14:03 52.96774 14.02631 23340 ft 434 kts 34°
2026-05-05 14:03 52.99201 14.05631 23746 ft 437 kts 34°
2026-05-05 14:03 53.01644 14.08656 24150 ft 440 kts 34°
2026-05-05 14:04 53.04104 14.11709 24549 ft 443 kts 34°
2026-05-05 14:04 53.06579 14.14779 24943 ft 445 kts 34°
2026-05-05 14:04 53.08983 14.17761 25304 ft 448 kts 34°
2026-05-05 14:04 53.11400 14.20763 25668 ft 450 kts 33°
2026-05-05 14:05 53.13917 14.23891 26033 ft 453 kts 33°
2026-05-05 14:05 53.16448 14.27042 26390 ft 456 kts 33°
2026-05-05 14:05 53.18884 14.30078 26714 ft 459 kts 33°
2026-05-05 14:05 53.21552 14.33411 27075 ft 462 kts 33°
2026-05-05 14:06 53.24126 14.36636 27420 ft 464 kts 33°
2026-05-05 14:06 53.26740 14.39814 27759 ft 464 kts 28°
2026-05-05 14:06 53.29455 14.42355 28079 ft 462 kts 20°
2026-05-05 14:06 53.32355 14.44487 28404 ft 463 kts 18°
2026-05-05 14:07 53.35300 14.46626 28731 ft 465 kts 18°
2026-05-05 14:07 53.38246 14.48768 29071 ft 468 kts 18°
2026-05-05 14:07 53.41239 14.50948 29315 ft 471 kts 18°
2026-05-05 14:07 53.44254 14.53153 29608 ft 474 kts 18°
2026-05-05 14:08 53.47283 14.55377 29907 ft 476 kts 18°
2026-05-05 14:08 53.50318 14.57617 30161 ft 479 kts 18°
2026-05-05 14:08 53.53354 14.59861 30409 ft 480 kts 18°
2026-05-05 14:08 53.56394 14.62109 30652 ft 482 kts 18°
2026-05-05 14:09 53.59463 14.64383 30892 ft 483 kts 18°
2026-05-05 14:09 53.62488 14.66627 31139 ft 485 kts 18°
2026-05-05 14:09 53.65574 14.68923 31433 ft 485 kts 18°
2026-05-05 14:09 53.68654 14.71219 31771 ft 484 kts 18°
2026-05-05 14:10 53.71553 14.73382 32069 ft 482 kts 18°
2026-05-05 14:10 53.73745 14.75014 32317 ft 482 kts 18°
2026-05-05 14:10 53.76810 14.77294 32671 ft 481 kts 18°
2026-05-05 14:10 53.79869 14.79570 32999 ft 480 kts 18°
2026-05-05 14:11 53.82918 14.81846 33312 ft 479 kts 18°
2026-05-05 14:11 53.85890 14.84072 33683 ft 478 kts 19°
2026-05-05 14:11 53.88926 14.86355 34008 ft 476 kts 19°
2026-05-05 14:11 53.91675 14.88426 34257 ft 476 kts 19°
2026-05-05 14:12 53.94654 14.90674 34512 ft 475 kts 19°
2026-05-05 14:12 53.97673 14.92953 34750 ft 475 kts 19°
2026-05-05 14:12 54.00689 14.95234 34984 ft 474 kts 19°
2026-05-05 14:12 54.03702 14.97516 35217 ft 474 kts 19°
2026-05-05 14:13 54.06712 14.99796 35439 ft 474 kts 19°
2026-05-05 14:13 54.09721 15.02077 35672 ft 473 kts 19°
2026-05-05 14:13 54.12734 15.04355 35882 ft 473 kts 19°
2026-05-05 14:13 54.15740 15.06626 36088 ft 473 kts 19°
2026-05-05 14:14 54.18744 15.08897 36291 ft 472 kts 19°
2026-05-05 14:14 54.21747 15.11170 36494 ft 472 kts 19°
2026-05-05 14:14 54.24704 15.13411 36678 ft 471 kts 19°
2026-05-05 14:14 54.27703 15.15690 36857 ft 471 kts 19°
2026-05-05 14:15 54.33675 15.20253 36926 ft 469 kts 20°
2026-05-05 14:15 54.39633 15.24825 36928 ft 469 kts 20°
2026-05-05 14:16 54.45586 15.29410 36928 ft 469 kts 20°
2026-05-05 14:16 54.51497 15.33996 36931 ft 469 kts 20°
2026-05-05 14:17 54.57445 15.38625 36958 ft 469 kts 20°
2026-05-05 14:17 54.63394 15.43257 36952 ft 469 kts 20°
2026-05-05 14:18 54.69342 15.47908 36952 ft 469 kts 20°
2026-05-05 14:18 54.75294 15.52575 36950 ft 469 kts 20°
2026-05-05 14:19 54.81205 15.57210 36962 ft 469 kts 20°
2026-05-05 14:19 54.87151 15.61896 36956 ft 469 kts 20°
2026-05-05 14:20 54.92766 15.67755 36946 ft 476 kts 37°
2026-05-05 14:20 54.97498 15.75869 36940 ft 478 kts 43°
2026-05-05 14:21 55.02156 15.84148 36947 ft 479 kts 43°
2026-05-05 14:21 55.06773 15.92395 36940 ft 479 kts 43°
2026-05-05 14:22 55.11419 16.00731 36945 ft 479 kts 43°
2026-05-05 14:22 55.16061 16.09089 36949 ft 479 kts 44°
2026-05-05 14:23 55.20694 16.17470 36948 ft 479 kts 44°
2026-05-05 14:23 55.25325 16.25868 36972 ft 479 kts 43°
2026-05-05 14:24 55.29924 16.34225 36961 ft 479 kts 44°
2026-05-05 14:24 55.34540 16.42660 36948 ft 479 kts 44°
2026-05-05 14:25 55.39147 16.51121 36947 ft 479 kts 44°
2026-05-05 14:25 55.43748 16.59601 36943 ft 479 kts 44°
2026-05-05 14:26 55.48350 16.68090 36953 ft 479 kts 44°
2026-05-05 14:26 55.52914 16.76548 36946 ft 479 kts 44°
2026-05-05 14:27 55.57503 16.85074 36940 ft 479 kts 44°
2026-05-05 14:27 55.62087 16.93631 36939 ft 479 kts 44°
2026-05-05 14:28 55.66660 17.02202 36954 ft 479 kts 44°
2026-05-05 14:28 55.71231 17.10806 36936 ft 479 kts 44°
2026-05-05 14:29 55.75769 17.19368 36931 ft 480 kts 44°
2026-05-05 14:29 55.80344 17.27998 36929 ft 479 kts 44°
2026-05-05 14:30 55.85007 17.36472 36931 ft 479 kts 43°
2026-05-05 14:30 55.89705 17.44899 36946 ft 479 kts 43°
2026-05-05 14:31 55.94375 17.53396 36934 ft 480 kts 43°
2026-05-05 14:31 55.99025 17.61932 36933 ft 480 kts 43°
2026-05-05 14:32 56.03629 17.70451 36929 ft 480 kts 43°
2026-05-05 14:32 56.08262 17.79042 36929 ft 480 kts 43°
2026-05-05 14:33 56.12897 17.87641 36940 ft 480 kts 43°
2026-05-05 14:33 56.17527 17.96251 36936 ft 479 kts 43°
2026-05-05 14:34 56.22081 18.05013 36921 ft 480 kts 45°
2026-05-05 14:34 56.26498 18.13929 36923 ft 481 kts 46°
2026-05-05 14:35 56.30930 18.22949 36948 ft 481 kts 46°
2026-05-05 14:35 56.35391 18.31953 36935 ft 481 kts 45°
2026-05-05 14:36 56.39865 18.40944 36932 ft 482 kts 45°
2026-05-05 14:36 56.44331 18.49964 36928 ft 482 kts 46°
2026-05-05 14:37 56.48780 18.59028 36927 ft 482 kts 46°
2026-05-05 14:37 56.53196 18.68057 36957 ft 482 kts 46°
2026-05-05 14:38 56.57638 18.77158 36939 ft 482 kts 46°
2026-05-05 14:38 56.62083 18.86285 36929 ft 483 kts 46°
2026-05-05 14:39 56.66514 18.95450 36910 ft 483 kts 46°
2026-05-05 14:39 56.70944 19.04650 36913 ft 483 kts 46°
2026-05-05 14:40 56.75373 19.13863 36936 ft 484 kts 46°
2026-05-05 14:40 56.79771 19.23053 36926 ft 484 kts 46°
2026-05-05 14:41 56.84192 19.32323 36927 ft 484 kts 46°
2026-05-05 14:41 56.88605 19.41621 36921 ft 484 kts 46°
2026-05-05 14:42 56.93016 19.50949 36922 ft 484 kts 46°
2026-05-05 14:42 56.96674 19.58718 36942 ft 485 kts 46°
2026-05-05 14:43 57.01074 19.68089 36931 ft 485 kts 46°
2026-05-05 14:43 57.06178 19.79014 36925 ft 485 kts 47°
2026-05-05 14:44 57.09821 19.86848 36923 ft 485 kts 47°
2026-05-05 14:44 57.14205 19.96293 36906 ft 485 kts 47°
2026-05-05 14:45 57.18577 20.05762 36911 ft 485 kts 47°
2026-05-05 14:45 57.22948 20.15252 36916 ft 485 kts 47°
2026-05-05 14:46 57.27317 20.24765 36919 ft 486 kts 47°
2026-05-05 14:46 57.31670 20.34313 36919 ft 486 kts 47°
2026-05-05 14:47 57.35995 20.43816 36929 ft 486 kts 47°
2026-05-05 14:47 57.40345 20.53399 36936 ft 486 kts 47°
2026-05-05 14:48 57.44687 20.63021 36930 ft 486 kts 47°
2026-05-05 14:48 57.49013 20.72672 36927 ft 486 kts 48°
2026-05-05 14:49 57.53337 20.82349 36923 ft 486 kts 48°
2026-05-05 14:49 57.57633 20.91989 36937 ft 487 kts 48°
2026-05-05 14:50 57.61949 21.01717 36925 ft 487 kts 48°
2026-05-05 14:50 57.66261 21.11477 36920 ft 488 kts 48°
2026-05-05 14:51 57.70573 21.21268 36918 ft 488 kts 48°
2026-05-05 14:51 57.74881 21.31087 36920 ft 488 kts 48°
2026-05-05 14:52 57.79151 21.40879 36946 ft 488 kts 48°
2026-05-05 14:52 57.83439 21.50756 36916 ft 488 kts 48°
2026-05-05 14:53 57.87727 21.60657 36911 ft 489 kts 48°
2026-05-05 14:53 57.92008 21.70587 36911 ft 489 kts 49°
2026-05-05 14:54 57.96281 21.80555 36910 ft 489 kts 49°
2026-05-05 14:54 58.00547 21.90545 36892 ft 490 kts 49°
2026-05-05 14:55 58.02685 21.95561 36601 ft 491 kts 49°
2026-05-05 14:55 58.04793 22.00515 36343 ft 490 kts 49°
2026-05-05 14:55 58.06923 22.05530 36089 ft 490 kts 49°
2026-05-05 14:55 58.09052 22.10549 35835 ft 489 kts 49°
2026-05-05 14:56 58.11197 22.15519 35584 ft 487 kts 47°
2026-05-05 14:56 58.13387 22.20374 35229 ft 482 kts 46°
2026-05-05 14:56 58.15596 22.25121 34705 ft 479 kts 45°
2026-05-05 14:56 58.17811 22.29819 34204 ft 476 kts 45°
2026-05-05 14:57 58.20010 22.34491 33666 ft 474 kts 45°
2026-05-05 14:57 58.22188 22.39160 33150 ft 471 kts 45°
2026-05-05 14:57 58.24339 22.43826 32660 ft 468 kts 45°
2026-05-05 14:57 58.26462 22.48482 32171 ft 465 kts 46°
2026-05-05 14:58 58.28563 22.53119 31701 ft 462 kts 46°
2026-05-05 14:58 58.30623 22.57672 31231 ft 459 kts 46°
2026-05-05 14:58 58.32682 22.62229 30765 ft 457 kts 46°
2026-05-05 14:58 58.34763 22.66844 30295 ft 454 kts 46°
2026-05-05 14:59 58.36812 22.71392 29810 ft 452 kts 46°
2026-05-05 14:59 58.38855 22.75930 29324 ft 449 kts 46°
2026-05-05 14:59 58.40875 22.80417 28901 ft 444 kts 46°
2026-05-05 14:59 58.42880 22.84878 28487 ft 441 kts 45°
2026-05-05 15:00 58.44865 22.89307 28053 ft 438 kts 45°
2026-05-05 15:00 58.46175 22.92233 27774 ft 436 kts 45°
2026-05-05 15:00 58.48792 22.98092 27213 ft 431 kts 45°
2026-05-05 15:00 58.50730 23.02440 26792 ft 428 kts 45°
2026-05-05 15:01 58.52652 23.06764 26375 ft 425 kts 46°
2026-05-05 15:01 58.54534 23.11014 25909 ft 423 kts 46°
2026-05-05 15:01 58.56425 23.15290 25510 ft 419 kts 45°
2026-05-05 15:01 58.58310 23.19541 25065 ft 418 kts 45°
2026-05-05 15:02 58.60201 23.23747 24628 ft 416 kts 45°
2026-05-05 15:02 58.62086 23.27904 24181 ft 415 kts 44°
2026-05-05 15:02 58.63993 23.32098 23733 ft 415 kts 44°
2026-05-05 15:02 58.65888 23.36272 23238 ft 415 kts 44°
2026-05-05 15:03 58.67777 23.40451 22777 ft 412 kts 44°
2026-05-05 15:03 58.69646 23.44604 22327 ft 410 kts 45°
2026-05-05 15:03 58.71504 23.48745 21886 ft 408 kts 45°
2026-05-05 15:03 58.73348 23.52874 21450 ft 406 kts 45°
2026-05-05 15:04 58.75181 23.56991 21021 ft 404 kts 45°
2026-05-05 15:04 58.77004 23.61090 20594 ft 402 kts 45°
2026-05-05 15:04 58.78821 23.65181 20171 ft 401 kts 45°
2026-05-05 15:04 58.80629 23.69251 19744 ft 399 kts 45°
2026-05-05 15:05 58.84205 23.77314 18959 ft 397 kts 45°
2026-05-05 15:05 58.86000 23.81369 18506 ft 397 kts 45°
2026-05-05 15:05 58.87791 23.85422 18091 ft 397 kts 45°
2026-05-05 15:06 58.89576 23.89481 17647 ft 395 kts 46°
2026-05-05 15:06 58.91349 23.93525 17246 ft 392 kts 46°
2026-05-05 15:06 58.93103 23.97542 16847 ft 390 kts 46°
2026-05-05 15:06 58.94850 24.01551 16449 ft 388 kts 46°
2026-05-05 15:07 58.96584 24.05533 16060 ft 386 kts 47°
2026-05-05 15:07 58.98104 24.09830 15656 ft 387 kts 57°
2026-05-05 15:07 58.99495 24.14285 15266 ft 385 kts 57°
2026-05-05 15:07 59.00879 24.18725 14879 ft 384 kts 57°
2026-05-05 15:08 59.02254 24.23147 14491 ft 382 kts 57°
2026-05-05 15:08 59.03621 24.27561 14082 ft 381 kts 57°
2026-05-05 15:08 59.04962 24.31900 13740 ft 379 kts 57°
2026-05-05 15:08 59.06317 24.36290 13309 ft 378 kts 57°
2026-05-05 15:09 59.07655 24.40628 13107 ft 369 kts 57°
2026-05-05 15:09 59.08954 24.44850 12951 ft 360 kts 57°
2026-05-05 15:09 59.10229 24.49003 12646 ft 355 kts 57°
2026-05-05 15:09 59.11490 24.53123 12310 ft 353 kts 58°
2026-05-05 15:10 59.12740 24.57213 11959 ft 351 kts 58°
2026-05-05 15:10 59.13984 24.61281 11615 ft 349 kts 58°
2026-05-05 15:10 59.15223 24.65328 11272 ft 347 kts 58°
2026-05-05 15:10 59.16451 24.69358 10927 ft 345 kts 58°
2026-05-05 15:11 59.17669 24.73359 10601 ft 342 kts 58°
2026-05-05 15:11 59.18877 24.77334 10289 ft 339 kts 58°
2026-05-05 15:11 59.20073 24.81277 9958 ft 337 kts 58°
2026-05-05 15:11 59.21260 24.85192 9615 ft 335 kts 58°
2026-05-05 15:12 59.22440 24.89089 9241 ft 332 kts 58°
2026-05-05 15:12 59.23603 24.92956 8882 ft 329 kts 58°
2026-05-05 15:12 59.24753 24.96794 8544 ft 326 kts 58°
2026-05-05 15:12 59.25892 25.00599 8180 ft 323 kts 58°
2026-05-05 15:13 59.27022 25.04362 7831 ft 320 kts 58°
2026-05-05 15:13 59.28143 25.08098 7473 ft 317 kts 58°
2026-05-05 15:13 59.29252 25.11806 7107 ft 314 kts 58°
2026-05-05 15:13 59.30346 25.15470 6815 ft 308 kts 58°
2026-05-05 15:14 59.31439 25.18986 6323 ft 304 kts 50°
2026-05-05 15:14 59.32929 25.21784 5695 ft 292 kts 28°
2026-05-05 15:14 59.34719 25.23404 5069 ft 278 kts
2026-05-05 15:14 59.36578 25.23855 4509 ft 263 kts 355°
2026-05-05 15:15 59.38383 25.23876 3975 ft 254 kts 351°
2026-05-05 15:15 59.39943 25.22869 3661 ft 224 kts 319°
2026-05-05 15:15 59.40903 25.20635 3388 ft 212 kts 291°
2026-05-05 15:15 59.41174 25.17867 3104 ft 204 kts 271°
2026-05-05 15:16 59.41189 25.15172 2808 ft 191 kts 270°
2026-05-05 15:16 59.41202 25.12634 2521 ft 182 kts 270°
2026-05-05 15:16 59.41215 25.10225 2301 ft 169 kts 271°
2026-05-05 15:16 59.41226 25.07994 2238 ft 161 kts 271°
2026-05-05 15:17 59.41236 25.05859 2089 ft 155 kts 271°
2026-05-05 15:17 59.41246 25.03844 1912 ft 142 kts 271°
2026-05-05 15:17 59.41255 25.01941 1738 ft 138 kts 271°
2026-05-05 15:17 59.41246 25.00088 1564 ft 134 kts 272°
2026-05-05 15:18 59.41260 24.98239 1371 ft 136 kts 271°
2026-05-05 15:18 59.41277 24.96385 1141 ft 135 kts 273°
2026-05-05 15:18 59.41288 24.94523 969 ft 138 kts 271°
2026-05-05 15:18 59.41300 24.92672 767 ft 134 kts 272°
2026-05-05 15:19 59.41303 24.90826 590 ft 137 kts 271°
2026-05-05 15:19 59.41310 24.88974 419 ft 134 kts 271°
2026-05-05 15:19 59.41313 24.87151 247 ft 133 kts 272°
2026-05-05 15:19 59.41321 24.85414 165 ft 113 kts 271°
2026-05-05 15:20 59.41324 24.84200 161 ft 66 kts 270°
2026-05-05 15:20 59.41326 24.83440 164 ft 49 kts 270°
2026-05-05 15:20 59.41332 24.82862 161 ft 31 kts 281°
2026-05-05 15:20 59.41402 24.82529 161 ft 21 kts 302°
2026-05-05 15:21 59.41469 24.82310 162 ft 18 kts 299°
2026-05-05 15:21 59.41504 24.82074 162 ft 18 kts 272°
2026-05-05 15:21 59.41505 24.81820 162 ft 19 kts 271°
2026-05-05 15:21 59.41504 24.81557 162 ft 20 kts 270°
2026-05-05 15:22 59.41505 24.81287 162 ft 20 kts 270°
2026-05-05 15:22 59.41506 24.81009 162 ft 21 kts 270°
2026-05-05 15:22 59.41506 24.80732 162 ft 16 kts 270°
2026-05-05 15:22 59.41520 24.80539 162 ft 13 kts 308°
2026-05-05 15:23 59.41617 24.80512 162 ft 16 kts
2026-05-05 15:23 59.41715 24.80476 162 ft 14 kts 326°
2026-05-05 15:23 59.41741 24.80350 162 ft 9 kts 279°
2026-05-05 15:23 59.41733 24.80264 162 ft 5 kts 212°
2026-05-05 15:24 59.41700 24.80265 162 ft 3 kts 180°
2026-05-05 15:24 59.41692 24.80265 162 ft 0 kts 180°